Regional Weather Roundup
Issued by NWS Kansas City/Pleasant Hill, MO

Home | Current Version | Previous Version | Graphics & Text | Print | Product List | Glossary Off
Versions: 1 2 3 4 5 6 7 8 9 10 11 12 13 14 15 16 17 18 19 20 21 22 23 24 25 26 27 28 29 30 31 32 33 34 35 36 37 38 39 40 41 42 43 44 45 46 47 48 49 50

000
ASUS43 KEAX 311910
RWREAX

WEATHER ROUNDUP FOR EASTERN KANSAS AND NORTHWEST MISSOURI
NATIONAL WEATHER SERVICE KANSAS CITY/PLEASANT HILL MO
200 PM CDT FRI JUL 31 2015

KSZ040-057-103>105-MOZ028-029-037-043-312000-
...KANSAS CITY METROPOLITAN AREA...

CITY           SKY/WX    TMP DP  RH WIND       PRES   REMARKS
K.C. INTL      MOSUNNY   86  66  51 CALM      30.14S
K.C. DOWNTOWN  SUNNY     89  65  44 SW8       30.11F HX  91
LEES SUMMIT    SUNNY     88  62  41 W6        30.14F
OLATHE - IXD   SUNNY     87  64  46 MISG      30.14F
OLATHE - OJC   SUNNY     87  62  43 W5        30.13F
LAWRENCE       SUNNY     88  66  48 VRB3      30.13F HX  90

$$

MOZ001>008-011>017-020>025-030>033-038>040-044>046-053-054-312000-
...NORTHERN AND CENTRAL MISSOURI...

CITY           SKY/WX    TMP DP  RH WIND       PRES   REMARKS
ST. JOSEPH     SUNNY     87  73  62 W5        30.12F HX  94
MOSBY            N/A     86  63  45 W5        30.12S
WARRENSBURG    SUNNY     88  54  31 W6        30.12F THUNDER
WHITEMAN AFB   SUNNY     90  58  34 NW7       30.11F
CLINTON        SUNNY     90  64  43 SW5       30.13F HX  91
SEDALIA        SUNNY     91  62  37 W8        30.13F HX  91
WARSAW         NOT AVBL
CHILLICOTHE      N/A     88  66  48 W5        30.12F HX  90
KIRKSVILLE     SUNNY     87  62  43 NW8       30.11F

$$

MOZ041-047>049-056>058-063>065-088>090-097-312000-
...EASTERN AND SOUTHERN MISSOURI...

CITY           SKY/WX    TMP DP  RH WIND       PRES   REMARKS
ST. LOUIS INTL MOSUNNY   93  62  35 NW8       30.09F HX  93
SPIRIT OF STL  MOSUNNY   91  62  37 NW9       30.07F HX  91
COLUMBIA       SUNNY     88  63  43 NW6       30.12F
JEFFERSON CITY SUNNY     90  62  39 VRB5      30.09F HX  90
ROLLA          SUNNY     89  60  37 VRB6G16   30.12F
OSAGE BEACH    SUNNY     90  61  37 W7        30.13F
SPRINGFIELD    SUNNY     89  51  27 W6        30.15F
BRANSON        MOSUNNY   86  63  45 NW5       30.17F
JOPLIN         SUNNY     91  62  37 VRB5      30.14F HX  91
WEST PLAINS    SUNNY     88  57  34 VRB3      30.16F

$$

IAZ060-094-KSZ022-034>040-054-083-096-NEZ052-066-093-312000-
...KANSAS...SOUTHEAST NEBRASKA AND IOWA...

CITY           SKY/WX    TMP DP  RH WIND       PRES   REMARKS
TOPEKA         SUNNY     88  67  49 VRB3      30.13F HX  91
MANHATTAN      SUNNY     89  70  53 S5        30.13F HX  94
EMPORIA        SUNNY     88  65  46 MISG      30.14F HX  90
CHANUTE        SUNNY     90  65  43 VRB5      30.14F HX  92
WICHITA        PTSUNNY   89  68  49 S6        30.15F HX  93
OMAHA          MOSUNNY   91  73  55 NW8       30.09F HX  99
LINCOLN        SUNNY     92  70  48 W12G17    30.12F HX  97
FALLS CITY     SUNNY     86  72  62 SW5       30.12F HX  92
LAMONI         SUNNY     85  69  58 VRB3      30.11F
DES MOINES     MOSUNNY   89  61  38 N5        30.08F

$$



USA.gov is the U.S. government's official web portal to all federal, state and local government web resources and services.